Change the Weather History Date:

Wednesday, October 12, 2011

  Actual Average Record
Temperature  
Mean Temperature 72 °F -  
Max Temperature 77 °F 73 °F 84 °F (2010)
Min Temperature 66 °F 50 °F 35 °F (2000)
Cooling Degree Days 6    
Growing Degree Days 22 (Base 50)    
Moisture  
Dew Point 70 °F    
Average Humidity 96    
Maximum Humidity 100    
Minimum Humidity 89    
Precipitation  
Precipitation 0.81 in - - ()
Sea Level Pressure  
Sea Level Pressure 29.84 in    
Wind  
Wind Speed 6 mph (ENE)    
Max Wind Speed 13 mph    
Max Gust Speed -    
Visibility 8 miles    
Events Thunderstorm    
Averages and records for this station are not official NWS values.
T = Trace of Precipitation, MM = Missing Value Source: NWS Daily Summary

Daily Weather History Graph

Daily Weather History Graph

Search for Another Location

Airport or City:

Trip Planner

Search our weather history database for the weather conditions in past years. The results will help you decide how hot, cold, wet, or windy it might be!

Date:

Astronomy

Oct. 12, 2011 Rise Set
Actual Time 7:13 AM EDT 6:39 PM EDT
Civil Twilight 6:48 AM EDT 7:05 PM EDT
Nautical Twilight 6:18 AM EDT 7:34 PM EDT
Astronomical Twilight 5:49 AM EDT 8:03 PM EDT
Moon 6:45 PM EDT (10/12) 7:42 AM EDT (10/12)
Length of Visible Light 12h 17m
Length of Day
11h 26m
Full, 100% of the Moon is Illuminated
Oct 12
Full
Oct 19
Last Quarter
Oct 26
New
Nov 2
First Quarter
Nov 10
Full

Hourly Weather History & Observations

Time (EDT) Temp. Dew Point Humidity Pressure Visibility Wind Dir Wind Speed Gust Speed Precip Events Conditions
12:15 AM 66.2 °F 64.4 °F 94% 29.91 in 10.0 mi ENE 8.1 mph - N/A   Overcast
12:35 AM 66.2 °F 64.4 °F 94% 29.90 in 10.0 mi ENE 8.1 mph - N/A   Overcast
12:55 AM 68.0 °F 66.2 °F 94% 29.90 in 10.0 mi ENE 6.9 mph - N/A   Overcast
1:15 AM 68.0 °F 66.2 °F 94% 29.89 in 10.0 mi NE 8.1 mph - N/A   Overcast
1:35 AM 66.2 °F 66.2 °F 100% 29.89 in 10.0 mi ENE 8.1 mph - N/A   Overcast
1:55 AM 68.0 °F 66.2 °F 94% 29.89 in 5.0 mi ENE 9.2 mph - N/A   Overcast
2:15 AM 68.0 °F 66.2 °F 94% 29.89 in 6.0 mi East 4.6 mph - 0.01 in   Overcast
2:35 AM 68.0 °F 68.0 °F 100% 29.89 in 6.0 mi ENE 3.5 mph - 0.02 in   Overcast
2:55 AM 68.0 °F 68.0 °F 100% 29.88 in 8.0 mi NE 4.6 mph - 0.02 in   Overcast
3:35 AM 68.0 °F 68.0 °F 100% 29.87 in 8.0 mi NE 5.8 mph - N/A   Overcast
3:55 AM 68.0 °F 68.0 °F 100% 29.86 in 8.0 mi NE 4.6 mph - N/A   Overcast
4:15 AM 66.2 °F 66.2 °F 100% 29.85 in 6.0 mi NNE 4.6 mph - N/A   Scattered Clouds
4:35 AM 66.2 °F 64.4 °F 94% 29.85 in 6.0 mi Calm Calm - N/A   Mostly Cloudy
4:55 AM 66.2 °F 66.2 °F 100% 29.86 in 6.0 mi Calm Calm - N/A   Mostly Cloudy
5:15 AM 66.2 °F 64.4 °F 94% 29.85 in 5.0 mi NNE 4.6 mph - N/A   Mostly Cloudy
5:35 AM 66.2 °F 64.4 °F 94% 29.85 in 5.0 mi NNE 5.8 mph - N/A   Scattered Clouds
5:55 AM 66.2 °F 66.2 °F 100% 29.85 in 5.0 mi NNE 5.8 mph - N/A   Mostly Cloudy
6:15 AM 66.2 °F 66.2 °F 100% 29.86 in 5.0 mi NNE 3.5 mph - N/A   Overcast
6:35 AM 66.2 °F 66.2 °F 100% 29.86 in 5.0 mi NE 6.9 mph - 0.02 in   Overcast
6:55 AM 68.0 °F 68.0 °F 100% 29.86 in 8.0 mi NE 5.8 mph - 0.02 in   Overcast
7:35 AM 68.0 °F 68.0 °F 100% 29.87 in 6.0 mi East 4.6 mph - N/A   Mostly Cloudy
7:55 AM 68.0 °F 66.2 °F 94% 29.87 in 6.0 mi ENE 3.5 mph - N/A   Mostly Cloudy
8:15 AM 69.8 °F 68.0 °F 94% 29.88 in 7.0 mi SE 3.5 mph - N/A   Overcast
8:35 AM 69.8 °F 69.8 °F 100% 29.87 in 9.0 mi ESE 4.6 mph - N/A   Overcast
8:55 AM 71.6 °F 69.8 °F 94% 29.87 in 8.0 mi ESE 4.6 mph - N/A   Overcast
9:15 AM 71.6 °F 71.6 °F 100% 29.86 in 9.0 mi East 5.8 mph - N/A   Mostly Cloudy
9:35 AM 73.4 °F 73.4 °F 100% 29.87 in 10.0 mi ESE 5.8 mph - N/A   Mostly Cloudy
9:55 AM 73.4 °F 71.6 °F 94% 29.87 in 10.0 mi East 5.8 mph - N/A   Overcast
10:15 AM 75.2 °F 73.4 °F 94% 29.87 in 10.0 mi ENE 6.9 mph - N/A   Overcast
10:35 AM 75.2 °F 73.4 °F 94% 29.87 in 10.0 mi ENE 9.2 mph - N/A   Overcast
10:55 AM 75.2 °F 73.4 °F 94% 29.86 in 10.0 mi East 10.4 mph - N/A   Overcast
11:15 AM 77.0 °F 73.4 °F 89% 29.85 in 10.0 mi ENE 9.2 mph - N/A   Mostly Cloudy
11:35 AM 75.2 °F 75.2 °F 100% 29.84 in 3.0 mi NE 5.8 mph - 0.10 in Thunderstorm Thunderstorm
11:55 AM 75.2 °F 73.4 °F 94% 29.84 in 8.0 mi WNW 6.9 mph - 0.24 in Thunderstorm Thunderstorm
12:15 PM 75.2 °F 73.4 °F 94% 29.84 in 10.0 mi North 10.4 mph - 0.01 in Thunderstorm Thunderstorm
12:35 PM 73.4 °F 73.4 °F 100% 29.83 in 9.0 mi NNW 5.8 mph - 0.02 in Thunderstorm Overcast
12:55 PM 73.4 °F 71.6 °F 94% 29.84 in 10.0 mi Calm Calm - 0.02 in   Mostly Cloudy
1:15 PM 73.4 °F 71.6 °F 94% 29.83 in 10.0 mi NE 11.5 mph - N/A   Scattered Clouds
1:35 PM 75.2 °F 71.6 °F 89% 29.81 in 10.0 mi NE 11.5 mph - N/A Thunderstorm Thunderstorm
2:15 PM 73.4 °F 71.6 °F 94% 29.81 in 7.0 mi ESE 12.7 mph - 0.06 in Thunderstorm Thunderstorm
2:35 PM 71.6 °F 71.6 °F 100% 29.80 in 2.5 mi ENE 10.4 mph - 0.49 in Thunderstorm Overcast
2:55 PM 71.6 °F 71.6 °F 100% 29.81 in 10.0 mi ESE 9.2 mph - 0.50 in Thunderstorm Thunderstorm
3:15 PM 73.4 °F 73.4 °F 100% 29.79 in 10.0 mi East 8.1 mph - 0.01 in Thunderstorm Mostly Cloudy
3:35 PM 73.4 °F 73.4 °F 100% 29.80 in 10.0 mi SSE 6.9 mph - 0.01 in Thunderstorm Partly Cloudy
3:55 PM 73.4 °F 73.4 °F 100% 29.79 in 10.0 mi East 6.9 mph - 0.01 in Thunderstorm Thunderstorm
4:15 PM 73.4 °F 71.6 °F 94% 29.80 in 10.0 mi SE 6.9 mph - N/A   Partly Cloudy
4:35 PM 73.4 °F 71.6 °F 94% 29.79 in 10.0 mi ESE 4.6 mph - N/A   Scattered Clouds
5:15 PM 75.2 °F 71.6 °F 89% 29.78 in 10.0 mi SE 6.9 mph - N/A   Partly Cloudy
5:35 PM 73.4 °F 71.6 °F 94% 29.78 in 10.0 mi SSE 5.8 mph - N/A   Partly Cloudy
5:55 PM 75.2 °F 71.6 °F 89% 29.78 in 10.0 mi Calm Calm - N/A   Partly Cloudy
6:15 PM 73.4 °F 71.6 °F 94% 29.78 in 10.0 mi East 4.6 mph - N/A   Clear
6:35 PM 73.4 °F 71.6 °F 94% 29.79 in 10.0 mi Calm Calm - N/A   Partly Cloudy
6:55 PM 73.4 °F 71.6 °F 94% 29.78 in 10.0 mi Calm Calm - N/A   Partly Cloudy
7:15 PM 71.6 °F 71.6 °F 100% 29.78 in 10.0 mi East 3.5 mph - N/A   Clear
7:35 PM 71.6 °F 71.6 °F 100% 29.78 in 10.0 mi ENE 4.6 mph - N/A   Clear
7:55 PM 71.6 °F 71.6 °F 100% 29.79 in 10.0 mi Calm Calm - N/A   Clear
8:15 PM 71.6 °F 69.8 °F 94% 29.79 in 10.0 mi Calm Calm - N/A   Partly Cloudy
8:35 PM 71.6 °F 71.6 °F 100% 29.79 in 9.0 mi Calm Calm - N/A   Mostly Cloudy
8:55 PM 69.8 °F 68.0 °F 94% 29.80 in 10.0 mi ENE 5.8 mph - N/A   Mostly Cloudy
9:15 PM 69.8 °F 69.8 °F 100% 29.80 in 10.0 mi Calm Calm - N/A   Overcast
9:35 PM 69.8 °F 69.8 °F 100% 29.80 in 10.0 mi ESE 3.5 mph - N/A   Mostly Cloudy
9:55 PM 71.6 °F 71.6 °F 100% 29.80 in 8.0 mi Calm Calm - N/A   Mostly Cloudy
10:15 PM 71.6 °F 71.6 °F 100% 29.79 in 8.0 mi Calm Calm - N/A   Overcast
10:35 PM 71.6 °F 71.6 °F 100% 29.79 in 7.0 mi SSW 3.5 mph - N/A   Overcast
10:55 PM 69.8 °F 69.8 °F 100% 29.79 in 5.0 mi South 3.5 mph - N/A   Scattered Clouds
11:15 PM 69.8 °F 69.8 °F 100% 29.80 in 5.0 mi South 4.6 mph - N/A   Clear
11:35 PM 69.8 °F 69.8 °F 100% 29.80 in 10.0 mi South 4.6 mph - N/A   Clear
11:55 PM 69.8 °F 69.8 °F 100% 29.80 in 10.0 mi SSE 3.5 mph - N/A   Scattered Clouds